Tracking 17631 objects as of 5-May-2016
HD Live streaming from Space Station
objects crossing your sky now

CZ-3C R/B

Track CZ-3C R/B now!
10-day predictions


NORAD ID: 36591
Int'l Code: 2010-024B
Perigee: 191.2 km
Apogee: 19,930.0 km
Inclination: 20.7 °
Period: 349.4 minutes
Semi major axis: 16431 km
RCS: 15.0139 m2 (large)
Launch date: June 2, 2010
Source: People's Republic of China (PRC)
Launch site: Xichang Space Center, China (XSC)

Note: This is a ROCKET BODY
Your satellite tracking list
Your tracking list is empty





NASA's NSSDC Master Catalog

Two Line Element Set (TLE):
1 36591U 10024B   16124.39645797  .00069920 -35344-6  13793-2 0  9992
2 36591  20.6900 272.7365 6006353 350.5427   1.8106  4.12175824 68604
Source of the keplerian elements: AFSPC

N2YO: 334